User: anonymous   Login
Location: ???? ?????????
(31.1304°N, 31.7111°E)
Time: 17:52:49
(UTC+00:00)
Language:

AO-7 - Orbit

View from above orbital plane
View from above orbital plane
View from above satellite
View from above satellite

Ground track
Ground track

The orbit data is extracted from the following two-line orbital elements,

1  7530U 74089B   21103.21520000 -.00000051  00000-0 -31873-4 0  9994
2  7530 101.8488  77.8019 0012368 145.9839 285.6400 12.53648192123796
Epoch (UTC): 13 April 2021 05:09:53
Eccentricity: 0.0012368
inclination: 101.8488°
perigee height: 1439 km
apogee height: 1459 km
right ascension of ascending node: 77.8019°
argument of perigee: 145.9839°
revolutions per day: 12.53648192
mean anomaly at epoch: 285.6400°
orbit number at epoch: 12379

The dashed part of the orbit path shows where the satellite is in the earth's shadow,  

DLR